| time (UTC) | temp F | wind direction | speed MPH | gust MPH | rain 1hr in | rain 24hr in | rain mn in | humidity % | barometer mb |
| 20260503021531 | 48 | 321 | 4.0 | 9.0 | 0.00 | 0.00 | 0.00 | 58 | 1014.0 |
| 20260503021030 | 48 | 9 | 3.0 | 10.0 | 0.00 | 0.00 | 0.00 | 58 | 1014.1 |
| 20260503020600 | 48 | 309 | 7.0 | 10.0 | 0.00 | 0.00 | 0.00 | 58 | 1014.1 |
| 20260503020044 | 48 | 326 | 7.0 | 10.0 | 0.00 | 0.00 | 0.00 | 57 | 1014.1 |
| 20260503015542 | 48 | 319 | 5.0 | 12.0 | 0.00 | 0.00 | 0.00 | 57 | 1014.1 |
| 20260503015042 | 48 | 321 | 6.0 | 12.0 | 0.00 | 0.00 | 0.00 | 56 | 1014.1 |
| 20260503014542 | 48 | 315 | 7.0 | 11.0 | 0.00 | 0.00 | 0.00 | 56 | 1014.1 |
| 20260503014040 | 48 | 321 | 6.0 | 14.0 | 0.00 | 0.00 | 0.00 | 56 | 1014.1 |
| 20260503013539 | 48 | 327 | 5.0 | 15.0 | 0.00 | 0.00 | 0.00 | 56 | 1014.0 |
| 20260503013036 | 49 | 336 | 6.0 | 15.0 | 0.00 | 0.00 | 0.00 | 55 | 1013.9 |
| 20260503012530 | 49 | 340 | 4.0 | 13.0 | 0.00 | 0.00 | 0.00 | 55 | 1013.9 |
| 20260503012024 | 49 | 355 | 7.0 | 13.0 | 0.00 | 0.00 | 0.00 | 55 | 1013.7 |
| 20260503011602 | 49 | 13 | 6.0 | 13.0 | 0.00 | 0.00 | 0.00 | 55 | 1013.5 |
| 20260503011040 | 49 | 43 | 6.0 | 13.0 | 0.00 | 0.00 | 0.00 | 56 | 1013.5 |
| 20260503010541 | 49 | 34 | 6.0 | 17.0 | 0.00 | 0.00 | 0.00 | 55 | 1013.5 |
| 20260503010043 | 49 | 346 | 6.0 | 17.0 | 0.00 | 0.00 | 0.00 | 54 | 1013.5 |
| 20260503005533 | 50 | 327 | 5.0 | 14.0 | 0.00 | 0.00 | 0.00 | 54 | 1013.4 |
| 20260503005056 | 50 | 318 | 7.0 | 14.0 | 0.00 | 0.00 | 0.00 | 54 | 1013.1 |
| 20260503004530 | 50 | 15 | 6.0 | 13.0 | 0.00 | 0.00 | 0.00 | 54 | 1013.2 |
| 20260503004024 | 50 | 313 | 3.0 | 13.0 | 0.00 | 0.00 | 0.00 | 53 | 1013.1 |
| 20260503003535 | 50 | 323 | 8.0 | 15.0 | 0.00 | 0.00 | 0.00 | 53 | 1013.1 |
| 20260503003029 | 50 | 321 | 9.0 | 15.0 | 0.00 | 0.00 | 0.00 | 53 | 1013.2 |
| 20260503002539 | 51 | 344 | 7.0 | 15.0 | 0.00 | 0.00 | 0.00 | 52 | 1013.1 |
| 20260503002057 | 51 | 334 | 8.0 | 13.0 | 0.00 | 0.00 | 0.00 | 52 | 1013.0 |
| 20260503001527 | 51 | 333 | 3.0 | 12.0 | 0.00 | 0.00 | 0.00 | 53 | 1013.1 |
| 20260503001042 | 51 | 360 | 6.0 | 12.0 | 0.00 | 0.00 | 0.00 | 53 | 1012.9 |
| 20260503000539 | 52 | 5 | 6.0 | 12.0 | 0.00 | 0.00 | 0.00 | 53 | 1012.9 |
| 20260503000038 | 52 | 23 | 5.0 | 13.0 | 0.00 | 0.00 | 0.00 | 52 | 1012.9 |
| 20260502235534 | 52 | 321 | 7.0 | 13.0 | 0.00 | 0.00 | 0.00 | 52 | 1012.9 |
| 20260502235031 | 52 | 342 | 4.0 | 10.0 | 0.00 | 0.00 | 0.00 | 52 | 1012.8 |
| 20260502234548 | 52 | 327 | 4.0 | 12.0 | 0.00 | 0.00 | 0.00 | 52 | 1012.8 |
| 20260502234045 | 52 | 300 | 7.0 | 12.0 | 0.00 | 0.00 | 0.00 | 51 | 1012.8 |
| 20260502233532 | 52 | 292 | 5.0 | 13.0 | 0.00 | 0.00 | 0.00 | 51 | 1012.7 |
| 20260502233025 | 53 | 343 | 8.0 | 14.0 | 0.00 | 0.00 | 0.00 | 50 | 1012.7 |
| 20260502232535 | 53 | 318 | 9.0 | 15.0 | 0.00 | 0.00 | 0.00 | 50 | 1012.6 |
| 20260502232026 | 53 | 311 | 9.0 | 15.0 | 0.00 | 0.00 | 0.00 | 50 | 1012.5 |
| 20260502231541 | 53 | 341 | 7.0 | 16.0 | 0.00 | 0.00 | 0.00 | 49 | 1012.5 |
| 20260502231035 | 53 | 325 | 10.0 | 18.0 | 0.00 | 0.00 | 0.00 | 49 | 1012.5 |
| 20260502230526 | 54 | 333 | 12.0 | 18.0 | 0.00 | 0.00 | 0.00 | 48 | 1012.4 |
| 20260502230047 | 54 | 286 | 9.0 | 17.0 | 0.00 | 0.00 | 0.00 | 47 | 1012.4 |
| 20260502225543 | 54 | 315 | 9.0 | 14.0 | 0.00 | 0.00 | 0.00 | 45 | 1012.4 |
| 20260502225036 | 55 | 331 | 5.0 | 14.0 | 0.00 | 0.00 | 0.00 | 45 | 1012.3 |
| 20260502224531 | 55 | 309 | 10.0 | 14.0 | 0.00 | 0.00 | 0.00 | 44 | 1012.2 |
| 20260502224050 | 55 | 350 | 6.0 | 14.0 | 0.00 | 0.00 | 0.00 | 44 | 1012.1 |
| 20260502223541 | 56 | 342 | 4.0 | 13.0 | 0.00 | 0.00 | 0.00 | 45 | 1012.0 |
| 20260502223040 | 56 | 319 | 8.0 | 13.0 | 0.00 | 0.00 | 0.00 | 44 | 1012.1 |
| 20260502222542 | 56 | 313 | 7.0 | 13.0 | 0.00 | 0.00 | 0.00 | 44 | 1012.0 |
| 20260502222043 | 56 | 338 | 6.0 | 12.0 | 0.00 | 0.00 | 0.00 | 44 | 1011.9 |
| 20260502221536 | 56 | 313 | 7.0 | 12.0 | 0.00 | 0.00 | 0.00 | 42 | 1012.0 |
| 20260502221032 | 56 | 333 | 5.0 | 11.0 | 0.00 | 0.00 | 0.00 | 43 | 1011.9 |
| 20260502220526 | 56 | 331 | 4.0 | 14.0 | 0.00 | 0.00 | 0.00 | 42 | 1012.0 |
| 20260502220105 | 56 | 298 | 6.0 | 14.0 | 0.00 | 0.00 | 0.00 | 42 | 1012.0 |
| 20260502215543 | 56 | 338 | 5.0 | 11.0 | 0.00 | 0.00 | 0.00 | 42 | 1012.0 |
| 20260502215042 | 57 | 291 | 7.0 | 11.0 | 0.00 | 0.00 | 0.00 | 41 | 1012.1 |
| 20260502214558 | 57 | 300 | 2.0 | 12.0 | 0.00 | 0.00 | 0.00 | 41 | 1012.0 |
| 20260502214035 | 57 | 318 | 5.0 | 11.0 | 0.00 | 0.00 | 0.00 | 42 | 1012.1 |
| 20260502213529 | 57 | 329 | 6.0 | 13.0 | 0.00 | 0.00 | 0.00 | 39 | 1012.1 |
| 20260502213025 | 57 | 280 | 6.0 | 15.0 | 0.00 | 0.00 | 0.00 | 40 | 1012.1 |
| 20260502212537 | 58 | 304 | 8.0 | 15.0 | 0.00 | 0.00 | 0.00 | 39 | 1012.0 |
| 20260502212056 | 58 | 296 | 9.0 | 14.0 | 0.00 | 0.00 | 0.00 | 40 | 1011.8 |
| 20260502211531 | 59 | 252 | 4.0 | 16.0 | 0.00 | 0.00 | 0.00 | 39 | 1011.8 |
| 20260502211024 | 59 | 342 | 8.0 | 16.0 | 0.00 | 0.00 | 0.00 | 38 | 1011.7 |
| 20260502210602 | 59 | 355 | 7.0 | 11.0 | 0.00 | 0.00 | 0.00 | 41 | 1011.7 |
| 20260502210037 | 58 | 295 | 7.0 | 15.0 | 0.00 | 0.00 | 0.00 | 41 | 1011.7 |
| 20260502205540 | 58 | 271 | 6.0 | 15.0 | 0.00 | 0.00 | 0.00 | 39 | 1011.7 |
| 20260502205033 | 58 | 246 | 7.0 | 12.0 | 0.00 | 0.00 | 0.00 | 41 | 1011.7 |
| 20260502204525 | 58 | 257 | 6.0 | 11.0 | 0.00 | 0.00 | 0.00 | 41 | 1011.7 |
| 20260502204044 | 58 | 292 | 7.0 | 11.0 | 0.00 | 0.00 | 0.00 | 42 | 1011.8 |
| 20260502203540 | 58 | 300 | 6.0 | 13.0 | 0.00 | 0.00 | 0.00 | 40 | 1011.8 |
| 20260502203040 | 58 | 327 | 7.0 | 16.0 | 0.00 | 0.00 | 0.00 | 41 | 1011.7 |
| 20260502202539 | 58 | 329 | 8.0 | 16.0 | 0.00 | 0.00 | 0.00 | 41 | 1011.8 |
| 20260502202040 | 58 | 355 | 6.0 | 14.0 | 0.00 | 0.00 | 0.00 | 40 | 1011.8 |
| 20260502201539 | 58 | 284 | 8.0 | 12.0 | 0.00 | 0.00 | 0.00 | 42 | 1011.8 |
| 20260502201038 | 58 | 10 | 4.0 | 13.0 | 0.00 | 0.00 | 0.00 | 43 | 1011.8 |
| 20260502200525 | 58 | 332 | 6.0 | 13.0 | 0.00 | 0.00 | 0.00 | 42 | 1011.9 |
| 20260502200045 | 58 | 246 | 5.0 | 15.0 | 0.00 | 0.00 | 0.00 | 40 | 1012.0 |
| 20260502195602 | 59 | 309 | 11.0 | 16.0 | 0.00 | 0.00 | 0.00 | 39 | 1012.1 |
| 20260502195041 | 59 | 299 | 10.0 | 16.0 | 0.00 | 0.00 | 0.00 | 39 | 1012.1 |
| 20260502194600 | 59 | 319 | 9.0 | 15.0 | 0.00 | 0.00 | 0.00 | 40 | 1012.2 |
| 20260502194042 | 59 | 311 | 6.0 | 11.0 | 0.00 | 0.00 | 0.00 | 41 | 1012.2 |
| 20260502193536 | 59 | 339 | 6.0 | 12.0 | 0.00 | 0.00 | 0.00 | 40 | 1012.3 |
| 20260502193032 | 59 | 253 | 6.0 | 13.0 | 0.00 | 0.00 | 0.00 | 42 | 1012.4 |
| 20260502192553 | 59 | 316 | 6.0 | 14.0 | 0.00 | 0.00 | 0.00 | 41 | 1012.5 |
| 20260502192032 | 60 | 296 | 8.0 | 17.0 | 0.00 | 0.00 | 0.00 | 39 | 1012.4 |
| 20260502191527 | 60 | 314 | 5.0 | 14.0 | 0.00 | 0.00 | 0.00 | 41 | 1012.6 |
| 20260502191027 | 60 | 302 | 8.0 | 14.0 | 0.00 | 0.00 | 0.00 | 39 | 1012.6 |
| 20260502190601 | 60 | 347 | 7.0 | 14.0 | 0.00 | 0.00 | 0.00 | 41 | 1012.5 |
| 20260502190037 | 60 | 287 | 6.0 | 13.0 | 0.00 | 0.00 | 0.00 | 38 | 1012.8 |
| 20260502185529 | 60 | 278 | 7.0 | 16.0 | 0.00 | 0.00 | 0.00 | 41 | 1012.7 |
| 20260502185026 | 60 | 323 | 12.0 | 16.0 | 0.00 | 0.00 | 0.00 | 39 | 1012.8 |
| 20260502184540 | 60 | 314 | 11.0 | 16.0 | 0.00 | 0.00 | 0.00 | 39 | 1012.7 |
| 20260502184041 | 59 | 238 | 4.0 | 12.0 | 0.00 | 0.00 | 0.00 | 42 | 1012.8 |
| 20260502183535 | 59 | 225 | 5.0 | 10.0 | 0.00 | 0.00 | 0.00 | 41 | 1012.9 |
| 20260502183030 | 59 | 279 | 4.0 | 11.0 | 0.00 | 0.00 | 0.00 | 41 | 1012.9 |
| 20260502182604 | 59 | 251 | 6.0 | 11.0 | 0.00 | 0.00 | 0.00 | 41 | 1012.9 |
| 20260502182042 | 59 | 260 | 2.0 | 10.0 | 0.00 | 0.00 | 0.00 | 43 | 1013.0 |
| 20260502181556 | 59 | 259 | 5.0 | 10.0 | 0.00 | 0.00 | 0.00 | 39 | 1013.1 |
| 20260502181032 | 59 | 261 | 1.0 | 10.0 | 0.00 | 0.00 | 0.00 | 42 | 1013.1 |
| 20260502180525 | 59 | 298 | 7.0 | 10.0 | 0.00 | 0.00 | 0.00 | 37 | 1013.2 |
| 20260502180105 | 60 | 273 | 3.0 | 12.0 | 0.00 | 0.00 | 0.00 | 39 | 1013.2 |
| 20260502164041 | 60 | 315 | 4.0 | 16.0 | 0.00 | 0.00 | 0.00 | 46 | 1013.4 |
| 20260502163539 | 60 | 287 | 6.0 | 16.0 | 0.00 | 0.00 | 0.00 | 43 | 1013.4 |
| 20260502163040 | 58 | 319 | 5.0 | 10.0 | 0.00 | 0.00 | 0.00 | 48 | 1013.4 |
| 20260502162533 | 58 | 346 | 4.0 | 9.0 | 0.00 | 0.00 | 0.00 | 45 | 1013.5 |
| 20260502162027 | 58 | 15 | 2.0 | 11.0 | 0.00 | 0.00 | 0.00 | 42 | 1013.5 |
| 20260502161542 | 57 | 332 | 5.0 | 11.0 | 0.00 | 0.00 | 0.00 | 41 | 1013.6 |
| 20260502161038 | 57 | 317 | 4.0 | 11.0 | 0.00 | 0.00 | 0.00 | 42 | 1013.6 |
| 20260502160530 | 57 | 325 | 4.0 | 11.0 | 0.00 | 0.00 | 0.00 | 42 | 1013.8 |
| 20260502152037 | 56 | 134 | 2.0 | 7.0 | 0.00 | 0.00 | 0.00 | 42 | 1013.8 |
| 20260502151530 | 56 | 232 | 2.0 | 8.0 | 0.00 | 0.00 | 0.00 | 44 | 1013.7 |
| 20260502151030 | 57 | 273 | 3.0 | 8.0 | 0.00 | 0.00 | 0.00 | 45 | 1013.8 |
| 20260502150524 | 57 | 318 | 4.0 | 8.0 | 0.00 | 0.00 | 0.00 | 45 | 1013.9 |
| 20260502130532 | 49 | 331 | 4.0 | 8.0 | 0.00 | 0.00 | 0.00 | 62 | 1014.2 |
| 20260502123542 | 46 | 308 | 2.0 | 9.0 | 0.00 | 0.00 | 0.00 | 68 | 1014.2 |
| 20260502123042 | 46 | 331 | 2.0 | 9.0 | 0.00 | 0.00 | 0.00 | 69 | 1014.2 |
| 20260502122541 | 46 | 338 | 5.0 | 9.0 | 0.00 | 0.00 | 0.00 | 68 | 1014.1 |
| 20260502122041 | 46 | 304 | 4.0 | 12.0 | 0.00 | 0.00 | 0.00 | 69 | 1014.1 |
| 20260502121540 | 45 | 309 | 6.0 | 12.0 | 0.00 | 0.00 | 0.00 | 69 | 1014.0 |
| 20260502121102 | 45 | 309 | 4.0 | 10.0 | 0.00 | 0.00 | 0.00 | 69 | 1014.1 |
| 20260502120541 | 45 | 22 | 3.0 | 10.0 | 0.00 | 0.00 | 0.00 | 71 | 1014.1 |
| 20260502115602 | 44 | 15 | 2.0 | 6.0 | 0.00 | 0.00 | 0.00 | 73 | 1014.3 |
| 20260502115040 | 44 | 5 | 1.0 | 8.0 | 0.00 | 0.00 | 0.00 | 73 | 1014.3 |
| 20260502114540 | 44 | 24 | 4.0 | 8.0 | 0.00 | 0.00 | 0.00 | 73 | 1014.3 |
| 20260502114037 | 44 | 326 | 2.0 | 6.0 | 0.00 | 0.00 | 0.00 | 74 | 1014.3 |
| 20260502113533 | 44 | 5 | 1.0 | 3.0 | 0.00 | 0.00 | 0.00 | 75 | 1014.3 |
| 20260502113034 | 43 | 57 | 0.0 | 3.0 | 0.00 | 0.00 | 0.00 | 75 | 1014.3 |
| 20260502112529 | 43 | 57 | 0.0 | 3.0 | 0.00 | 0.00 | 0.00 | 75 | 1014.3 |
| 20260502112026 | 43 | 57 | 1.0 | 2.0 | 0.00 | 0.00 | 0.00 | 75 | 1014.3 |
| 20260502111543 | 43 | 57 | 0.0 | 1.0 | 0.00 | 0.00 | 0.00 | 75 | 1014.1 |
| 20260502111042 | 43 | 57 | 0.0 | 1.0 | 0.00 | 0.00 | 0.00 | 75 | 1014.1 |
| 20260502110536 | 43 | 57 | 0.0 | 1.0 | 0.00 | 0.00 | 0.00 | 76 | 1014.1 |
| 20260502110058 | 43 | 57 | 0.0 | 3.0 | 0.00 | 0.00 | 0.00 | 76 | 1014.0 |
| 20260502105532 | 42 | 57 | 1.0 | 4.0 | 0.00 | 0.00 | 0.00 | 75 | 1014.1 |
| 20260502105053 | 42 | 49 | 2.0 | 4.0 | 0.00 | 0.00 | 0.00 | 75 | 1014.3 |
| 20260502104527 | 42 | 61 | 1.0 | 6.0 | 0.00 | 0.00 | 0.00 | 75 | 1014.4 |
| 20260502104025 | 42 | 355 | 2.0 | 6.0 | 0.00 | 0.00 | 0.00 | 75 | 1014.2 |
| 20260502103539 | 42 | 321 | 3.0 | 5.0 | 0.00 | 0.00 | 0.00 | 75 | 1014.0 |
| 20260502103041 | 42 | 325 | 2.0 | 5.0 | 0.00 | 0.00 | 0.00 | 75 | 1014.1 |
| 20260502102541 | 42 | 312 | 1.0 | 5.0 | 0.00 | 0.00 | 0.00 | 75 | 1014.3 |
| 20260502102043 | 42 | 331 | 3.0 | 5.0 | 0.00 | 0.00 | 0.00 | 75 | 1014.4 |
| 20260502101543 | 42 | 323 | 2.0 | 4.0 | 0.00 | 0.00 | 0.00 | 75 | 1014.4 |
| 20260502101025 | 42 | 316 | 2.0 | 5.0 | 0.00 | 0.00 | 0.00 | 75 | 1014.2 |
| 20260502100541 | 43 | 298 | 1.0 | 5.0 | 0.00 | 0.00 | 0.00 | 74 | 1014.1 |
| 20260502091040 | 44 | 300 | 1.0 | 7.0 | 0.00 | 0.00 | 0.00 | 73 | 1013.6 |
| 20260502090540 | 45 | 338 | 2.0 | 6.0 | 0.00 | 0.00 | 0.00 | 73 | 1013.7 |
| 20260502071526 | 46 | 286 | 3.0 | 9.0 | 0.00 | 0.00 | 0.00 | 71 | 1012.8 |
| 20260502071025 | 46 | 299 | 3.0 | 7.0 | 0.00 | 0.00 | 0.00 | 72 | 1012.7 |
| 20260502070600 | 46 | 325 | 2.0 | 4.0 | 0.00 | 0.00 | 0.00 | 74 | 1012.7 |
| 20260502070043 | 46 | 227 | 0.0 | 2.0 | 0.00 | 0.00 | 0.00 | 73 | 1012.7 |
| 20260502065542 | 47 | 304 | 0.0 | 7.0 | 0.00 | 0.00 | 0.00 | 71 | 1012.5 |
| 20260502065043 | 47 | 304 | 0.0 | 7.0 | 0.00 | 0.00 | 0.00 | 70 | 1012.4 |
| 20260502064536 | 47 | 293 | 1.0 | 4.0 | 0.00 | 0.00 | 0.00 | 71 | 1012.4 |
| 20260502064057 | 47 | 285 | 1.0 | 4.0 | 0.00 | 0.00 | 0.00 | 70 | 1012.4 |
| 20260502063530 | 47 | 294 | 1.0 | 3.0 | 0.00 | 0.00 | 0.00 | 70 | 1012.5 |
| 20260502063026 | 47 | 277 | 1.0 | 5.0 | 0.00 | 0.00 | 0.00 | 70 | 1012.5 |
| 20260502062541 | 47 | 282 | 1.0 | 7.0 | 0.00 | 0.00 | 0.00 | 70 | 1012.4 |
| 20260502062038 | 48 | 271 | 2.0 | 12.0 | 0.00 | 0.00 | 0.00 | 69 | 1012.4 |
| 20260502061529 | 48 | 268 | 4.0 | 12.0 | 0.00 | 0.00 | 0.00 | 70 | 1012.4 |
| 20260502061027 | 48 | 243 | 5.0 | 9.0 | 0.00 | 0.00 | 0.00 | 69 | 1012.7 |
| 20260502060546 | 48 | 180 | 5.0 | 9.0 | 0.00 | 0.00 | 0.00 | 70 | 1012.8 |
| 20260502060044 | 49 | 221 | 5.0 | 9.0 | 0.00 | 0.00 | 0.00 | 70 | 1012.8 |
| 20260502055601 | 49 | 257 | 3.0 | 7.0 | 0.00 | 0.00 | 0.00 | 70 | 1012.8 |
| 20260502055043 | 49 | 267 | 3.0 | 13.0 | 0.00 | 0.00 | 0.00 | 69 | 1012.7 |
| 20260502054542 | 49 | 230 | 6.0 | 13.0 | 0.00 | 0.00 | 0.00 | 70 | 1012.7 |
| 20260502054045 | 50 | 225 | 2.0 | 4.0 | 0.00 | 0.00 | 0.00 | 72 | 1012.8 |
| 20260502053524 | 50 | 150 | 2.0 | 3.0 | 0.00 | 0.00 | 0.00 | 72 | 1012.7 |
| 20260502053044 | 50 | 150 | 2.0 | 7.0 | 0.00 | 0.00 | 0.00 | 72 | 1012.7 |
| 20260502052535 | 50 | 141 | 1.0 | 7.0 | 0.00 | 0.00 | 0.00 | 71 | 1012.7 |
| 20260502052030 | 50 | 148 | 2.0 | 3.0 | 0.00 | 0.00 | 0.00 | 72 | 1012.7 |
| 20260502051524 | 50 | 148 | 1.0 | 2.0 | 0.00 | 0.00 | 0.00 | 71 | 1012.7 |
| 20260502051045 | 51 | 253 | 0.0 | 3.0 | 0.00 | 0.00 | 0.00 | 71 | 1012.6 |
| 20260502050543 | 51 | 294 | 0.0 | 8.0 | 0.00 | 0.00 | 0.00 | 71 | 1012.5 |
| 20260502050042 | 51 | 250 | 1.0 | 11.0 | 0.00 | 0.00 | 0.00 | 71 | 1012.7 |
| 20260502045541 | 51 | 269 | 6.0 | 11.0 | 0.00 | 0.00 | 0.00 | 72 | 1012.8 |
| 20260502045036 | 51 | 270 | 3.0 | 8.0 | 0.00 | 0.00 | 0.00 | 73 | 1012.7 |
| 20260502044531 | 51 | 251 | 4.0 | 8.0 | 0.00 | 0.00 | 0.00 | 73 | 1012.7 |
| 20260502044052 | 51 | 240 | 3.0 | 9.0 | 0.00 | 0.00 | 0.00 | 73 | 1012.6 |
| 20260502043525 | 51 | 246 | 4.0 | 9.0 | 0.00 | 0.00 | 0.00 | 74 | 1012.7 |
| 20260502043043 | 51 | 244 | 3.0 | 9.0 | 0.00 | 0.00 | 0.00 | 75 | 1012.8 |
| 20260502042541 | 51 | 252 | 3.0 | 9.0 | 0.00 | 0.00 | 0.00 | 75 | 1012.7 |
| 20260502042039 | 51 | 200 | 2.0 | 4.0 | 0.00 | 0.00 | 0.00 | 77 | 1012.6 |
| 20260502041534 | 51 | 238 | 2.0 | 7.0 | 0.00 | 0.00 | 0.00 | 76 | 1012.7 |
| 20260502041030 | 52 | 254 | 1.0 | 7.0 | 0.00 | 0.00 | 0.00 | 76 | 1012.5 |
| 20260502040542 | 52 | 228 | 1.0 | 2.0 | 0.00 | 0.00 | 0.00 | 75 | 1012.5 |
| 20260502040039 | 52 | 213 | 1.0 | 2.0 | 0.00 | 0.00 | 0.00 | 75 | 1012.4 |
| 20260502035541 | 52 | 213 | 0.0 | 2.0 | 0.00 | 0.00 | 0.00 | 75 | 1012.5 |
| 20260502035041 | 52 | 210 | 1.0 | 5.0 | 0.00 | 0.00 | 0.00 | 75 | 1012.5 |
| 20260502034541 | 52 | 193 | 1.0 | 5.0 | 0.00 | 0.00 | 0.00 | 74 | 1012.4 |
| 20260502034103 | 52 | 202 | 1.0 | 5.0 | 0.00 | 0.00 | 0.00 | 75 | 1012.3 |
| 20260502033542 | 52 | 194 | 4.0 | 5.0 | 0.00 | 0.00 | 0.00 | 74 | 1012.1 |
| 20260502033043 | 52 | 194 | 3.0 | 5.0 | 0.00 | 0.00 | 0.00 | 74 | 1012.1 |
| 20260502032541 | 52 | 207 | 0.0 | 4.0 | 0.00 | 0.00 | 0.00 | 75 | 1012.2 |
| 20260502032034 | 52 | 218 | 1.0 | 8.0 | 0.00 | 0.00 | 0.00 | 73 | 1012.2 |
| 20260502031528 | 53 | 248 | 3.0 | 8.0 | 0.00 | 0.00 | 0.00 | 72 | 1012.2 |
| 20260502031024 | 53 | 301 | 1.0 | 10.0 | 0.00 | 0.00 | 0.00 | 72 | 1012.1 |
| 20260502030541 | 53 | 273 | 3.0 | 11.0 | 0.00 | 0.00 | 0.00 | 71 | 1012.1 |
| 20260502030044 | 53 | 265 | 5.0 | 11.0 | 0.00 | 0.00 | 0.00 | 69 | 1012.2 |
| 20260502025535 | 53 | 274 | 5.0 | 9.0 | 0.00 | 0.00 | 0.00 | 67 | 1012.1 |
| 20260502025033 | 53 | 246 | 2.0 | 7.0 | 0.00 | 0.00 | 0.00 | 70 | 1012.2 |
| 20260502024552 | 53 | 308 | 0.0 | 5.0 | 0.00 | 0.00 | 0.00 | 70 | 1012.0 |
| 20260502024053 | 54 | 266 | 0.0 | 3.0 | 0.00 | 0.00 | 0.00 | 70 | 1012.1 |
| 20260502023527 | 54 | 266 | 2.0 | 3.0 | 0.00 | 0.00 | 0.00 | 70 | 1012.0 |
| 20260502023051 | 54 | 355 | 1.0 | 3.0 | 0.00 | 0.00 | 0.00 | 70 | 1011.9 |
| 20260502022531 | 54 | 309 | 1.0 | 3.0 | 0.00 | 0.00 | 0.00 | 70 | 1012.1 |
| 20260502022029 | 54 | 341 | 1.0 | 5.0 | 0.00 | 0.00 | 0.00 | 69 | 1012.2 |